Location: Burtsch�tz
(51.0528°N, 12.1764°E)
Time: 01:45:32
(UTC+00:00)

Cosmos 2058 - Pass Details

Date: 29 October 2020
Orbit: 561 x 584 km, 82.5° (Epoch: 23 November)

Event Time Altitude Azimuth Distance (km) Brightness Sun altitude
Rises 17:28:13 0° 349° (N) 2,768 6.5 -15.9°
Reaches altitude 10° 17:30:24 10° 350° (N) 1,867 5.6 -16.2°
Maximum altitude 17:34:31 86° 80° (E) 571 2.8 -16.9°
Drops below altitude 10° 17:38:37 10° 170° (S) 1,854 5.4 -17.5°
Sets 17:40:47 0° 170° (S) 2,748 6.3 -17.8°
